Regional Weather Roundup
Issued by NWS

Home | Current Version | Previous Version | Text Only | Print | Product List | Glossary On
Versions: 1 2 3 4 5 6 7 8 9 10 11 12 13 14 15 16 17 18 19 20 21 22 23 24 25 26 27 28 29 30 31 32 33 34 35 36 37 38 39 40 41 42 43 44 45 46 47 48 49 50
000
ASUS43 KTOP 270759
RWRKS

WEATHER ROUNDUP FOR KANSAS
NATIONAL WEATHER SERVICE GOODLAND KS
300 AM CDT THU APR 27 2017

NOTE:  "FAIR" INDICATES FEW OR NO CLOUDS BELOW 12,000 FEET WITH NO
SIGNIFICANT WEATHER AND/OR OBSTRUCTIONS TO VISIBILITY.

KSZ001>006-013>018-027>032-041>047-270900-
NORTHWEST KANSAS

CITY           SKY/WX    TMP DP  RH WIND       PRES   REMARKS
GOODLAND       PTCLDY    36  30  79 S6        29.67F
HAYS           CLEAR     33  30  88 NE5       29.72F
HILL CITY      CLEAR     31  29  92 CALM      29.73F
RUSSELL        CLEAR     36  31  82 NE3       29.72F
$$

KSZ061>065-074>080-084>089-270900-
SOUTHWEST KANSAS

CITY           SKY/WX    TMP DP  RH WIND       PRES   REMARKS
DODGE CITY     CLEAR     37  32  82 S8        29.71F
ELKHART          N/A     46  32  58 S7          N/A
GARDEN CITY    MOCLDY    39  30  70 SE7       29.70F
LIBERAL        MOCLDY    43  38  82 SE6       29.71F
$$

KSZ066>073-081>083-090>101-270900-
SOUTHEAST KANSAS

CITY           SKY/WX    TMP DP  RH WIND       PRES   REMARKS
CHANUTE        CLEAR     39  36  89 W5        29.71F
COFFEYVILLE    CLEAR     42  39  89 W3        29.73S
HUTCHINSON     CLEAR     34  33  96 CALM      29.74S
MEDICINE LODGE   N/A     34  33  96 N3        29.73F
NEWTON         CLEAR     38  34  85 N5        29.73
PARSONS        CLEAR     38  37  97 CALM      29.73S FOG
WICHITA INTL   CLEAR     38  36  92 CALM      29.73F
WICHITA JABRA  CLEAR     39  35  86 W6        29.73F
WICHITA MCCONL CLEAR     42  36  80 NW3       29.73S
WINFIELD       CLEAR     39  37  92 CALM      29.75F
$$

KSZ007>012-019>026-033>040-048>060-102>105-270900-
NORTHEAST KANSAS

CITY           SKY/WX    TMP DP  RH WIND       PRES   REMARKS
CONCORDIA      CLEAR     31  29  92 W7        29.72F
EMPORIA        CLEAR     38  36  92 W6        29.71F
LAWRENCE       CLOUDY    44  36  73 NW9       29.69F
MANHATTAN      CLEAR     38  32  79 VRB3      29.72S
OLATHE IND     CLOUDY    43  35  73 NW10      29.68F
OLATHE EXE     CLOUDY    42  35  76 NW14      29.67S
SALINA         CLEAR     37  31  78 NW8       29.74F
TOPEKA BILLARD CLOUDY    45  36  70 NW7       29.69F
TOPEKA FORBES  CLOUDY    46  35  65 NW9       29.68F
$$



USA.gov is the U.S. government's official web portal to all federal, state and local government web resources and services.